TAM3805 SBSL-SBBR

Flight info

Callsign TAM3805
Flight time 2h 2m
Altitude 34000
Route ISKAB UZ2 UTNUX
Aircraft A321/M-SDE3FGHIRWY/LB1

Departure

Time 2026-05-03 22:43
Airport Marechal Cunha Machado International Airport (SBSL)

Arrival

Time 2026-05-04 00:46
Airport Presidente Juscelino Kubitschek International Airport (SBBR)
Time Latitude Longitude Altitude Speed Heading
2026-05-03 22:21 -2.58429 -44.23607 246 ft 0 kts 341°
2026-05-03 22:34 -2.58443 -44.23603 163 ft 2 kts 342°
2026-05-03 22:34 -2.58459 -44.23598 163 ft 2 kts 345°
2026-05-03 22:34 -2.58475 -44.23593 163 ft 2 kts
2026-05-03 22:34 -2.58489 -44.23600 163 ft 2 kts 60°
2026-05-03 22:35 -2.58494 -44.23611 163 ft 1 kts 70°
2026-05-03 22:35 -2.58495 -44.23612 163 ft 0 kts 71°
2026-05-03 22:38 -2.58494 -44.23608 163 ft 4 kts 71°
2026-05-03 22:38 -2.58464 -44.23525 163 ft 18 kts 70°
2026-05-03 22:38 -2.58452 -44.23435 163 ft 13 kts 110°
2026-05-03 22:38 -2.58515 -44.23396 163 ft 11 kts 187°
2026-05-03 22:39 -2.58571 -44.23429 163 ft 8 kts 215°
2026-05-03 22:39 -2.58612 -44.23458 164 ft 6 kts 215°
2026-05-03 22:39 -2.58639 -44.23480 164 ft 4 kts 221°
2026-05-03 22:39 -2.58665 -44.23503 164 ft 9 kts 221°
2026-05-03 22:40 -2.58749 -44.23572 163 ft 22 kts 219°
2026-05-03 22:40 -2.58900 -44.23695 162 ft 33 kts 218°
2026-05-03 22:40 -2.59078 -44.23839 160 ft 33 kts 219°
2026-05-03 22:40 -2.59249 -44.23977 161 ft 31 kts 219°
2026-05-03 22:41 -2.59415 -44.24110 161 ft 30 kts 218°
2026-05-03 22:41 -2.59571 -44.24236 162 ft 28 kts 218°
2026-05-03 22:41 -2.59642 -44.24314 162 ft 10 kts 256°
2026-05-03 22:41 -2.59663 -44.24328 162 ft 3 kts 115°
2026-05-03 22:42 -2.59647 -44.24300 162 ft 5 kts 39°
2026-05-03 22:42 -2.59644 -44.24297 162 ft 3 kts 40°
2026-05-03 22:42 -2.59481 -44.24164 162 ft 72 kts 38°
2026-05-03 22:42 -2.58883 -44.23683 163 ft 146 kts 39°
2026-05-03 22:43 -2.57957 -44.22937 448 ft 179 kts 39°
2026-05-03 22:43 -2.57012 -44.22178 1396 ft 171 kts 41°
2026-05-03 22:43 -2.56066 -44.21413 1780 ft 183 kts 41°
2026-05-03 22:43 -2.55028 -44.20571 1908 ft 200 kts 41°
2026-05-03 22:44 -2.53893 -44.19639 2021 ft 221 kts 44°
2026-05-03 22:44 -2.53095 -44.18294 2189 ft 241 kts 81°
2026-05-03 22:44 -2.53365 -44.16628 2696 ft 252 kts 118°
2026-05-03 22:44 -2.54649 -44.15422 3344 ft 262 kts 153°
2026-05-03 22:45 -2.56448 -44.14997 4036 ft 270 kts 171°
2026-05-03 22:45 -2.58334 -44.14915 4758 ft 272 kts 175°
2026-05-03 22:45 -2.60245 -44.14872 5448 ft 274 kts 174°
2026-05-03 22:45 -2.62134 -44.14762 6109 ft 276 kts 171°
2026-05-03 22:46 -2.64055 -44.14561 6721 ft 278 kts 169°
2026-05-03 22:46 -2.65997 -44.14402 7341 ft 284 kts 181°
2026-05-03 22:46 -2.67928 -44.14929 7935 ft 293 kts 201°
2026-05-03 22:46 -2.69788 -44.15771 8555 ft 295 kts 201°
2026-05-03 22:47 -2.71650 -44.16627 9146 ft 297 kts 201°
2026-05-03 22:47 -2.73542 -44.17500 9758 ft 300 kts 202°
2026-05-03 22:47 -2.75456 -44.18384 10160 ft 310 kts 202°
2026-05-03 22:47 -2.77457 -44.19301 10269 ft 328 kts 202°
2026-05-03 22:48 -2.79606 -44.20279 10402 ft 346 kts 202°
2026-05-03 22:48 -2.81857 -44.21303 10527 ft 364 kts 202°
2026-05-03 22:48 -2.84183 -44.22365 10660 ft 379 kts 202°
2026-05-03 22:48 -2.86621 -44.23482 10902 ft 389 kts 202°
2026-05-03 22:49 -2.89106 -44.24624 11339 ft 394 kts 202°
2026-05-03 22:49 -2.91611 -44.25774 11819 ft 396 kts 202°
2026-05-03 22:49 -2.94105 -44.26914 12297 ft 399 kts 202°
2026-05-03 22:49 -2.96640 -44.28072 12773 ft 402 kts 202°
2026-05-03 22:50 -2.99202 -44.29244 13237 ft 404 kts 202°
2026-05-03 22:50 -3.01770 -44.30419 13692 ft 407 kts 202°
2026-05-03 22:50 -3.04362 -44.31603 14100 ft 409 kts 202°
2026-05-03 22:50 -3.06931 -44.32775 14484 ft 411 kts 202°
2026-05-03 22:51 -3.09543 -44.33967 14860 ft 413 kts 202°
2026-05-03 22:51 -3.12174 -44.35167 15237 ft 416 kts 202°
2026-05-03 22:51 -3.14820 -44.36377 15607 ft 418 kts 202°
2026-05-03 22:51 -3.17479 -44.37597 15979 ft 420 kts 202°
2026-05-03 22:52 -3.20115 -44.38806 16339 ft 422 kts 202°
2026-05-03 22:52 -3.22796 -44.40033 16701 ft 424 kts 202°
2026-05-03 22:52 -3.25491 -44.41266 17050 ft 426 kts 202°
2026-05-03 22:52 -3.28201 -44.42506 17390 ft 429 kts 202°
2026-05-03 22:53 -3.30935 -44.43739 17726 ft 430 kts 200°
2026-05-03 22:53 -3.33742 -44.44663 18047 ft 431 kts 193°
2026-05-03 22:53 -3.36654 -44.45458 18352 ft 433 kts 193°
2026-05-03 22:53 -3.39583 -44.46262 18638 ft 435 kts 194°
2026-05-03 22:54 -3.42470 -44.47059 18917 ft 436 kts 194°
2026-05-03 22:54 -3.45419 -44.47874 19197 ft 438 kts 194°
2026-05-03 22:54 -3.48363 -44.48692 19475 ft 440 kts 194°
2026-05-03 22:54 -3.51331 -44.49516 19756 ft 442 kts 194°
2026-05-03 22:55 -3.54268 -44.50331 20034 ft 444 kts 194°
2026-05-03 22:55 -3.57263 -44.51163 20283 ft 446 kts 194°
2026-05-03 22:55 -3.60266 -44.51994 20541 ft 448 kts 194°
2026-05-03 22:55 -3.63287 -44.52827 20802 ft 450 kts 194°
2026-05-03 22:56 -3.66280 -44.53655 21058 ft 452 kts 194°
2026-05-03 22:56 -3.69334 -44.54502 21323 ft 453 kts 194°
2026-05-03 22:56 -3.72387 -44.55352 21575 ft 455 kts 194°
2026-05-03 22:56 -3.75411 -44.56194 21821 ft 457 kts 194°
2026-05-03 22:57 -3.78485 -44.57049 22073 ft 458 kts 194°
2026-05-03 22:57 -3.81564 -44.57905 22320 ft 460 kts 194°
2026-05-03 22:57 -3.84667 -44.58770 22575 ft 461 kts 194°
2026-05-03 22:57 -3.87773 -44.59637 22820 ft 463 kts 194°
2026-05-03 22:58 -3.90850 -44.60492 23045 ft 464 kts 194°
2026-05-03 22:58 -3.93978 -44.61344 23277 ft 465 kts 194°
2026-05-03 22:58 -3.97128 -44.62156 23495 ft 467 kts 193°
2026-05-03 22:58 -4.00300 -44.62939 23682 ft 468 kts 193°
2026-05-03 22:59 -4.03439 -44.63700 23867 ft 469 kts 193°
2026-05-03 22:59 -4.06632 -44.64478 24050 ft 471 kts 193°
2026-05-03 22:59 -4.09824 -44.65265 24240 ft 471 kts 193°
2026-05-03 22:59 -4.12979 -44.66057 24426 ft 472 kts 193°
2026-05-03 23:00 -4.16181 -44.66870 24604 ft 473 kts 193°
2026-05-03 23:00 -4.19387 -44.67688 24792 ft 474 kts 193°
2026-05-03 23:00 -4.22541 -44.68491 24986 ft 475 kts 193°
2026-05-03 23:00 -4.25767 -44.69305 25160 ft 476 kts 193°
2026-05-03 23:01 -4.28991 -44.70112 25346 ft 477 kts 193°
2026-05-03 23:01 -4.32216 -44.70949 25531 ft 479 kts 194°
2026-05-03 23:01 -4.35407 -44.71826 25719 ft 480 kts 195°
2026-05-03 23:01 -4.38625 -44.72748 25903 ft 480 kts 195°
2026-05-03 23:02 -4.41851 -44.73688 26077 ft 481 kts 196°
2026-05-03 23:02 -4.45032 -44.74615 26294 ft 481 kts 196°
2026-05-03 23:02 -4.48262 -44.75546 26549 ft 480 kts 195°
2026-05-03 23:02 -4.51486 -44.76462 26795 ft 479 kts 195°
2026-05-03 23:03 -4.54690 -44.77361 27046 ft 478 kts 195°
2026-05-03 23:03 -4.57862 -44.78245 27296 ft 477 kts 195°
2026-05-03 23:03 -4.61067 -44.79136 27538 ft 477 kts 195°
2026-05-03 23:03 -4.64274 -44.80031 27779 ft 476 kts 195°
2026-05-03 23:04 -4.66383 -44.80622 27931 ft 476 kts 195°
2026-05-03 23:04 -4.69578 -44.81522 28171 ft 475 kts 196°
2026-05-03 23:04 -4.73823 -44.82727 28495 ft 474 kts 196°
2026-05-03 23:04 -4.75933 -44.83327 28665 ft 473 kts 196°
2026-05-03 23:05 -4.79065 -44.84218 28914 ft 473 kts 196°
2026-05-03 23:05 -4.82233 -44.85117 29155 ft 472 kts 196°
2026-05-03 23:05 -4.85395 -44.86012 29407 ft 471 kts 196°
2026-05-03 23:05 -4.89591 -44.87193 29746 ft 470 kts 196°
2026-05-03 23:06 -4.91685 -44.87780 29907 ft 469 kts 196°
2026-05-03 23:06 -4.94829 -44.88664 30128 ft 469 kts 196°
2026-05-03 23:06 -4.97974 -44.89548 30319 ft 468 kts 196°
2026-05-03 23:06 -5.01117 -44.90431 30512 ft 468 kts 196°
2026-05-03 23:07 -5.04263 -44.91316 30710 ft 468 kts 196°
2026-05-03 23:07 -5.07359 -44.92194 30898 ft 468 kts 196°
2026-05-03 23:07 -5.10498 -44.93087 31103 ft 468 kts 197°
2026-05-03 23:07 -5.13640 -44.93980 31307 ft 468 kts 197°
2026-05-03 23:08 -5.16774 -44.94866 31512 ft 468 kts 196°
2026-05-03 23:08 -5.19878 -44.95741 31727 ft 467 kts 196°
2026-05-03 23:08 -5.23013 -44.96625 31935 ft 467 kts 196°
2026-05-03 23:08 -5.26153 -44.97510 32139 ft 467 kts 196°
2026-05-03 23:09 -5.29263 -44.98384 32346 ft 467 kts 196°
2026-05-03 23:09 -5.32394 -44.99264 32552 ft 467 kts 196°
2026-05-03 23:09 -5.35526 -45.00147 32758 ft 467 kts 197°
2026-05-03 23:09 -5.38647 -45.01034 32961 ft 467 kts 197°
2026-05-03 23:10 -5.41779 -45.01926 33169 ft 467 kts 197°
2026-05-03 23:10 -5.44915 -45.02814 33380 ft 466 kts 196°
2026-05-03 23:10 -5.48053 -45.03702 33578 ft 466 kts 197°
2026-05-03 23:10 -5.51141 -45.04576 33773 ft 466 kts 196°
2026-05-03 23:11 -5.54281 -45.05464 33927 ft 467 kts 197°
2026-05-03 23:11 -5.60510 -45.07227 33962 ft 466 kts 197°
2026-05-03 23:12 -5.66772 -45.08994 33964 ft 466 kts 197°
2026-05-03 23:12 -5.72996 -45.10750 33961 ft 465 kts 197°
2026-05-03 23:13 -5.79204 -45.12502 33960 ft 465 kts 196°
2026-05-03 23:13 -5.85448 -45.14275 33964 ft 465 kts 197°
2026-05-03 23:14 -5.91694 -45.16048 33958 ft 465 kts 196°
2026-05-03 23:14 -5.97918 -45.17797 33963 ft 465 kts 196°
2026-05-03 23:15 -6.04136 -45.19515 33963 ft 465 kts 196°
2026-05-03 23:15 -6.10414 -45.21250 33967 ft 465 kts 196°
2026-05-03 23:16 -6.16625 -45.22982 33969 ft 465 kts 197°
2026-05-03 23:16 -6.22850 -45.24719 33975 ft 465 kts 197°
2026-05-03 23:17 -6.29132 -45.26466 33976 ft 466 kts 197°
2026-05-03 23:17 -6.35371 -45.28196 33977 ft 466 kts 197°
2026-05-03 23:18 -6.41627 -45.29928 33982 ft 466 kts 197°
2026-05-03 23:18 -6.47866 -45.31658 33983 ft 466 kts 197°
2026-05-03 23:19 -6.54119 -45.33386 33976 ft 466 kts 197°
2026-05-03 23:19 -6.60376 -45.35119 33974 ft 466 kts 197°
2026-05-03 23:20 -6.66642 -45.36869 33977 ft 466 kts 197°
2026-05-03 23:20 -6.72883 -45.38606 33970 ft 466 kts 197°
2026-05-03 23:21 -6.79138 -45.40336 33968 ft 466 kts 197°
2026-05-03 23:21 -6.85362 -45.42063 33966 ft 466 kts 197°
2026-05-03 23:22 -6.94724 -45.44675 33956 ft 466 kts 197°
2026-05-03 23:22 -7.00980 -45.46420 33953 ft 466 kts 197°
2026-05-03 23:23 -7.07243 -45.48163 33953 ft 466 kts 197°
2026-05-03 23:23 -7.13479 -45.49898 33953 ft 466 kts 197°
2026-05-03 23:24 -7.19744 -45.51631 33955 ft 466 kts 197°
2026-05-03 23:24 -7.25974 -45.53365 33953 ft 466 kts 197°
2026-05-03 23:25 -7.32235 -45.55111 33948 ft 466 kts 197°
2026-05-03 23:25 -7.38461 -45.56851 33947 ft 466 kts 197°
2026-05-03 23:26 -7.44700 -45.58585 33951 ft 466 kts 197°
2026-05-03 23:26 -7.50959 -45.60323 33952 ft 466 kts 197°
2026-05-03 23:27 -7.57237 -45.62079 33948 ft 466 kts 197°
2026-05-03 23:27 -7.63480 -45.63818 33945 ft 466 kts 198°
2026-05-03 23:28 -7.69716 -45.65556 33949 ft 466 kts 198°
2026-05-03 23:28 -7.75977 -45.67305 33950 ft 466 kts 198°
2026-05-03 23:29 -7.82196 -45.69043 33952 ft 466 kts 198°
2026-05-03 23:29 -7.88478 -45.70793 33953 ft 466 kts 198°
2026-05-03 23:30 -7.94717 -45.72533 33956 ft 466 kts 198°
2026-05-03 23:30 -8.00947 -45.74274 33957 ft 466 kts 198°
2026-05-03 23:31 -8.07181 -45.76019 33961 ft 466 kts 198°
2026-05-03 23:31 -8.13451 -45.77773 33959 ft 466 kts 198°
2026-05-03 23:32 -8.19675 -45.79529 33955 ft 465 kts 198°
2026-05-03 23:32 -8.25878 -45.81306 33955 ft 465 kts 198°
2026-05-03 23:33 -8.32136 -45.83100 33953 ft 465 kts 198°
2026-05-03 23:33 -8.38376 -45.84886 33953 ft 465 kts 198°
2026-05-03 23:34 -8.44598 -45.86666 33959 ft 466 kts 198°
2026-05-03 23:34 -8.50830 -45.88444 33962 ft 466 kts 198°
2026-05-03 23:35 -8.57066 -45.90225 33964 ft 466 kts 198°
2026-05-03 23:35 -8.63336 -45.92014 33966 ft 466 kts 198°
2026-05-03 23:36 -8.69539 -45.93797 33968 ft 466 kts 198°
2026-05-03 23:36 -8.75784 -45.95587 33969 ft 466 kts 198°
2026-05-03 23:37 -8.81998 -45.97364 33970 ft 465 kts 198°
2026-05-03 23:37 -8.88243 -45.99148 33968 ft 465 kts 198°
2026-05-03 23:38 -8.94458 -46.00931 33969 ft 465 kts 198°
2026-05-03 23:38 -9.00701 -46.02727 33965 ft 465 kts 198°
2026-05-03 23:39 -9.06907 -46.04505 33972 ft 465 kts 198°
2026-05-03 23:39 -9.13150 -46.06289 33975 ft 464 kts 198°
2026-05-03 23:40 -9.19340 -46.08049 33981 ft 464 kts 198°
2026-05-03 23:40 -9.25551 -46.09813 33979 ft 464 kts 198°
2026-05-03 23:41 -9.31754 -46.11582 33979 ft 463 kts 198°
2026-05-03 23:41 -9.37969 -46.13359 33977 ft 463 kts 198°
2026-05-03 23:42 -9.44147 -46.15127 33978 ft 463 kts 198°
2026-05-03 23:42 -9.50344 -46.16897 33976 ft 462 kts 198°
2026-05-03 23:43 -9.56563 -46.18668 33971 ft 463 kts 198°
2026-05-03 23:43 -9.62736 -46.20430 33970 ft 463 kts 198°
2026-05-03 23:44 -9.68922 -46.22201 33971 ft 463 kts 198°
2026-05-03 23:44 -9.75157 -46.23985 33975 ft 463 kts 198°
2026-05-03 23:45 -9.81342 -46.25750 33979 ft 464 kts 198°
2026-05-03 23:45 -9.87569 -46.27532 33985 ft 464 kts 198°
2026-05-03 23:46 -9.93768 -46.29313 33985 ft 464 kts 198°
2026-05-03 23:46 -9.99987 -46.31095 33989 ft 463 kts 198°
2026-05-03 23:47 -10.06166 -46.32863 33993 ft 463 kts 198°
2026-05-03 23:47 -10.12388 -46.34646 33999 ft 463 kts 198°
2026-05-03 23:48 -10.18606 -46.36433 33999 ft 463 kts 198°
2026-05-03 23:48 -10.24763 -46.38323 33994 ft 462 kts 199°
2026-05-03 23:49 -10.30871 -46.40278 33997 ft 462 kts 200°
2026-05-03 23:49 -10.36977 -46.42229 33987 ft 462 kts 199°
2026-05-03 23:50 -10.42091 -46.43838 33989 ft 462 kts 199°
2026-05-03 23:50 -10.49264 -46.46074 33990 ft 462 kts 199°
2026-05-03 23:51 -10.55433 -46.48001 33993 ft 462 kts 199°
2026-05-03 23:51 -10.61560 -46.49921 33990 ft 462 kts 199°
2026-05-03 23:52 -10.66677 -46.51527 33993 ft 462 kts 199°
2026-05-03 23:52 -10.72813 -46.53464 33996 ft 462 kts 199°
2026-05-03 23:53 -10.78968 -46.55407 33999 ft 462 kts 199°
2026-05-03 23:53 -10.85129 -46.57345 33997 ft 462 kts 199°
2026-05-03 23:54 -10.91264 -46.59271 34001 ft 462 kts 199°
2026-05-03 23:54 -10.97417 -46.61198 34010 ft 462 kts 199°
2026-05-03 23:55 -11.03562 -46.63136 34005 ft 462 kts 199°
2026-05-03 23:55 -11.09677 -46.65071 34002 ft 462 kts 199°
2026-05-03 23:56 -11.15831 -46.67016 33998 ft 462 kts 199°
2026-05-03 23:56 -11.21947 -46.68940 34002 ft 462 kts 199°
2026-05-03 23:57 -11.28116 -46.70886 34006 ft 462 kts 199°
2026-05-03 23:57 -11.34227 -46.72814 34005 ft 462 kts 199°
2026-05-03 23:58 -11.40385 -46.74756 34000 ft 462 kts 199°
2026-05-03 23:58 -11.46494 -46.76685 33999 ft 462 kts 199°
2026-05-03 23:59 -11.52647 -46.78634 33995 ft 462 kts 199°
2026-05-03 23:59 -11.58801 -46.80585 33993 ft 461 kts 199°
2026-05-04 00:00 -11.64909 -46.82512 33978 ft 461 kts 199°
2026-05-04 00:00 -11.71062 -46.84462 33978 ft 462 kts 199°
2026-05-04 00:01 -11.77164 -46.86393 33975 ft 461 kts 199°
2026-05-04 00:01 -11.83323 -46.88349 33976 ft 461 kts 199°
2026-05-04 00:02 -11.89439 -46.90286 33970 ft 461 kts 199°
2026-05-04 00:02 -11.95567 -46.92173 33971 ft 462 kts 197°
2026-05-04 00:03 -12.01813 -46.93796 33970 ft 462 kts 195°
2026-05-04 00:03 -12.08091 -46.95314 33968 ft 462 kts 195°
2026-05-04 00:04 -12.14317 -46.96874 33965 ft 462 kts 196°
2026-05-04 00:04 -12.20531 -46.98485 33960 ft 462 kts 196°
2026-05-04 00:05 -12.26778 -47.00115 33964 ft 462 kts 196°
2026-05-04 00:05 -12.32982 -47.01726 33963 ft 461 kts 196°
2026-05-04 00:06 -12.39223 -47.03333 33958 ft 461 kts 196°
2026-05-04 00:06 -12.45425 -47.04931 33965 ft 461 kts 196°
2026-05-04 00:07 -12.51661 -47.06544 33965 ft 460 kts 196°
2026-05-04 00:07 -12.57839 -47.08137 33970 ft 460 kts 196°
2026-05-04 00:08 -12.64076 -47.09746 33962 ft 460 kts 196°
2026-05-04 00:08 -12.70254 -47.11349 33977 ft 460 kts 196°
2026-05-04 00:09 -12.76487 -47.12973 33978 ft 460 kts 196°
2026-05-04 00:09 -12.82652 -47.14566 33978 ft 460 kts 196°
2026-05-04 00:10 -12.88875 -47.16168 33981 ft 460 kts 196°
2026-05-04 00:10 -12.95061 -47.17772 33984 ft 459 kts 196°
2026-05-04 00:11 -13.01271 -47.19393 33989 ft 459 kts 196°
2026-05-04 00:11 -13.07473 -47.20998 33988 ft 459 kts 196°
2026-05-04 00:12 -13.13646 -47.22591 33991 ft 459 kts 196°
2026-05-04 00:12 -13.19858 -47.24199 33991 ft 459 kts 196°
2026-05-04 00:13 -13.26002 -47.25803 34001 ft 459 kts 196°
2026-05-04 00:13 -13.32200 -47.27424 33997 ft 459 kts 196°
2026-05-04 00:14 -13.38404 -47.29034 34002 ft 459 kts 196°
2026-05-04 00:14 -13.44573 -47.30635 34003 ft 458 kts 196°
2026-05-04 00:15 -13.50782 -47.32196 34007 ft 459 kts 192°
2026-05-04 00:15 -13.57151 -47.32340 34015 ft 465 kts 174°
2026-05-04 00:16 -13.63581 -47.31374 34019 ft 466 kts 174°
2026-05-04 00:16 -13.69986 -47.30421 34028 ft 466 kts 174°
2026-05-04 00:17 -13.76422 -47.29467 34031 ft 466 kts 174°
2026-05-04 00:17 -13.82817 -47.28516 34034 ft 466 kts 174°
2026-05-04 00:18 -13.89260 -47.27546 34036 ft 466 kts 174°
2026-05-04 00:18 -13.95686 -47.26585 34037 ft 467 kts 174°
2026-05-04 00:19 -14.02116 -47.25629 34042 ft 467 kts 174°
2026-05-04 00:19 -14.08530 -47.24671 34045 ft 467 kts 174°
2026-05-04 00:20 -14.14981 -47.23702 34042 ft 467 kts 174°
2026-05-04 00:20 -14.21402 -47.22737 34041 ft 467 kts 174°
2026-05-04 00:21 -14.27809 -47.21774 34034 ft 467 kts 174°
2026-05-04 00:21 -14.34198 -47.20819 34031 ft 466 kts 174°
2026-05-04 00:22 -14.40657 -47.19859 34021 ft 466 kts 174°
2026-05-04 00:22 -14.47093 -47.18889 34020 ft 467 kts 174°
2026-05-04 00:23 -14.53508 -47.17916 34014 ft 467 kts 174°
2026-05-04 00:23 -14.59917 -47.16949 34017 ft 467 kts 174°
2026-05-04 00:24 -14.66331 -47.15989 34020 ft 467 kts 174°
2026-05-04 00:24 -14.72778 -47.15023 34024 ft 467 kts 174°
2026-05-04 00:25 -14.79224 -47.14057 34031 ft 467 kts 174°
2026-05-04 00:25 -14.85605 -47.13100 34029 ft 467 kts 174°
2026-05-04 00:26 -14.92047 -47.12123 34030 ft 466 kts 174°
2026-05-04 00:26 -14.98478 -47.11146 34030 ft 466 kts 174°
2026-05-04 00:27 -15.04869 -47.10178 34037 ft 466 kts 174°
2026-05-04 00:27 -15.11291 -47.09263 34042 ft 464 kts 179°
2026-05-04 00:28 -15.14493 -47.09358 34039 ft 459 kts 190°
2026-05-04 00:28 -15.17598 -47.10068 34035 ft 455 kts 201°
2026-05-04 00:28 -15.23067 -47.13148 34035 ft 449 kts 221°
2026-05-04 00:29 -15.27301 -47.17870 33743 ft 449 kts 231°
2026-05-04 00:29 -15.29285 -47.20317 33491 ft 449 kts 231°
2026-05-04 00:29 -15.31296 -47.22802 33229 ft 450 kts 231°
2026-05-04 00:30 -15.33317 -47.25299 32354 ft 455 kts 231°
2026-05-04 00:30 -15.35372 -47.27831 31442 ft 460 kts 231°
2026-05-04 00:30 -15.37446 -47.30385 30548 ft 465 kts 230°
2026-05-04 00:30 -15.39540 -47.32965 29486 ft 471 kts 230°
2026-05-04 00:31 -15.41652 -47.35572 28433 ft 474 kts 231°
2026-05-04 00:31 -15.43785 -47.38207 27395 ft 478 kts 231°
2026-05-04 00:31 -15.45908 -47.40832 26295 ft 483 kts 231°
2026-05-04 00:31 -15.48114 -47.43502 25113 ft 491 kts 227°
2026-05-04 00:32 -15.50669 -47.45910 23947 ft 498 kts 219°
2026-05-04 00:32 -15.53500 -47.48033 22880 ft 501 kts 217°
2026-05-04 00:32 -15.56300 -47.50109 22326 ft 490 kts 217°
2026-05-04 00:32 -15.59030 -47.52140 21134 ft 475 kts 217°
2026-05-04 00:33 -15.61627 -47.54081 20278 ft 452 kts 217°
2026-05-04 00:33 -15.66663 -47.57861 18969 ft 445 kts 216°
2026-05-04 00:33 -15.69174 -47.59745 18228 ft 444 kts 217°
2026-05-04 00:34 -15.71462 -47.61825 17486 ft 441 kts 227°
2026-05-04 00:34 -15.73314 -47.64356 16820 ft 436 kts 239°
2026-05-04 00:34 -15.74632 -47.67180 16153 ft 432 kts 250°
2026-05-04 00:34 -15.75374 -47.70151 15512 ft 429 kts 261°
2026-05-04 00:35 -15.75633 -47.73226 14892 ft 425 kts 266°
2026-05-04 00:35 -15.75828 -47.76280 14329 ft 421 kts 266°
2026-05-04 00:35 -15.76019 -47.79207 14092 ft 389 kts 266°
2026-05-04 00:35 -15.76195 -47.81904 13975 ft 359 kts 266°
2026-05-04 00:36 -15.76360 -47.84384 13847 ft 330 kts 266°
2026-05-04 00:36 -15.76515 -47.86718 13732 ft 318 kts 266°
2026-05-04 00:36 -15.76663 -47.88946 13609 ft 308 kts 266°
2026-05-04 00:36 -15.76804 -47.91124 13478 ft 298 kts 266°
2026-05-04 00:37 -15.76939 -47.93241 13281 ft 291 kts 266°
2026-05-04 00:37 -15.77071 -47.95326 13014 ft 287 kts 266°
2026-05-04 00:37 -15.77204 -47.97382 12764 ft 285 kts 266°
2026-05-04 00:37 -15.77336 -47.99428 12516 ft 284 kts 266°
2026-05-04 00:38 -15.77469 -48.01475 12284 ft 282 kts 266°
2026-05-04 00:38 -15.77597 -48.03478 11987 ft 282 kts 266°
2026-05-04 00:38 -15.77727 -48.05508 11524 ft 282 kts 266°
2026-05-04 00:38 -15.77857 -48.07541 11055 ft 282 kts 266°
2026-05-04 00:39 -15.77986 -48.09558 10671 ft 278 kts 266°
2026-05-04 00:39 -15.78115 -48.11572 10220 ft 279 kts 266°
2026-05-04 00:39 -15.78266 -48.13557 9787 ft 272 kts 261°
2026-05-04 00:39 -15.78973 -48.15342 9155 ft 266 kts 231°
2026-05-04 00:40 -15.80346 -48.16584 8719 ft 262 kts 205°
2026-05-04 00:40 -15.82072 -48.17076 8244 ft 256 kts 178°
2026-05-04 00:40 -15.83777 -48.16761 7754 ft 252 kts 153°
2026-05-04 00:40 -15.85179 -48.15733 7339 ft 245 kts 131°
2026-05-04 00:41 -15.86328 -48.14434 6885 ft 245 kts 130°
2026-05-04 00:41 -15.87498 -48.13122 6287 ft 248 kts 130°
2026-05-04 00:41 -15.88524 -48.11728 5695 ft 238 kts 115°
2026-05-04 00:41 -15.88908 -48.10684 5380 ft 231 kts 103°
2026-05-04 00:42 -15.88993 -48.08583 5246 ft 205 kts 86°
2026-05-04 00:42 -15.88933 -48.07641 5241 ft 188 kts 87°
2026-05-04 00:42 -15.88830 -48.05993 5197 ft 161 kts 87°
2026-05-04 00:42 -15.88759 -48.04859 5160 ft 154 kts 87°
2026-05-04 00:43 -15.88713 -48.04131 5140 ft 152 kts 87°
2026-05-04 00:43 -15.88644 -48.03043 5107 ft 151 kts 87°
2026-05-04 00:43 -15.88575 -48.01956 4995 ft 150 kts 87°
2026-05-04 00:43 -15.88506 -48.00876 4830 ft 150 kts 88°
2026-05-04 00:44 -15.88437 -47.99803 4638 ft 149 kts 88°
2026-05-04 00:44 -15.88369 -47.98730 4453 ft 148 kts 88°
2026-05-04 00:44 -15.88301 -47.97659 4263 ft 149 kts 88°
2026-05-04 00:44 -15.88233 -47.96592 4055 ft 151 kts 88°
2026-05-04 00:45 -15.88140 -47.95505 3896 ft 151 kts 87°
2026-05-04 00:45 -15.88086 -47.94416 3661 ft 152 kts 89°
2026-05-04 00:45 -15.88020 -47.93339 3504 ft 141 kts 89°
2026-05-04 00:45 -15.87968 -47.92457 3479 ft 95 kts 86°
2026-05-04 00:46 -15.87928 -47.91947 3469 ft 47 kts 77°
2026-05-04 00:46 -15.87798 -47.91683 3462 ft 29 kts 55°
2026-05-04 00:46 -15.87732 -47.91582 3461 ft 13 kts 56°
2026-05-04 00:46 -15.87660 -47.91552 3463 ft 12 kts 357°
2026-05-04 00:47 -15.87569 -47.91559 3466 ft 12 kts 356°
2026-05-04 00:47 -15.87505 -47.91564 3469 ft 7 kts 356°
2026-05-04 00:47 -15.87466 -47.91566 3470 ft 7 kts 357°
2026-05-04 00:47 -15.87384 -47.91571 3471 ft 14 kts 356°
2026-05-04 00:48 -15.87292 -47.91577 3471 ft 12 kts 356°
2026-05-04 00:48 -15.87239 -47.91603 3472 ft 7 kts 304°
2026-05-04 00:48 -15.87224 -47.91652 3472 ft 10 kts 301°
2026-05-04 00:48 -15.87148 -47.91680 3472 ft 12 kts 355°
2026-05-04 00:49 -15.87073 -47.91695 3472 ft 9 kts 319°
2026-05-04 00:49 -15.87062 -47.91753 3472 ft 8 kts 266°
2026-05-04 00:49 -15.87066 -47.91800 3472 ft 6 kts 257°
2026-05-04 00:49 -15.87090 -47.91818 3472 ft 4 kts 194°
2026-05-04 00:50 -15.87110 -47.91818 3472 ft 2 kts 175°
2026-05-04 00:50 -15.87121 -47.91817 3472 ft 0 kts 174°